This is the latest recevied weather packets stored in our database for station/object IZ5MMH-4. If no packets are shown the sender has not sent any weather packets the latest 10 day(s).
| Time | Temp. | Humidity | Pressure | Rain* | Wind** | Luminosity | Snow |
|---|---|---|---|---|---|---|---|
| 1787762663 | 31.11° C | 61% | 1016.5 hPa | - | - | - | - |
| 1787762063 | 31.11° C | 62% | 1016.9 hPa | - | - | - | - |
| 1787761464 | 31.11° C | 64% | 1016.7 hPa | - | - | - | - |
| 1787760264 | 31.11° C | 64% | 1017.2 hPa | - | - | - | - |
| 1787759663 | 31.11° C | 65% | 1017.4 hPa | - | - | - | - |
| 1787759064 | 31.11° C | 66% | 1017.7 hPa | - | - | - | - |
| 1787758464 | 31.11° C | 65% | 1017.7 hPa | - | - | - | - |
| 1787757864 | 31.67° C | 64% | 1017.6 hPa | - | - | - | - |
| 1787757263 | 31.67° C | 60% | 1017.6 hPa | - | - | - | - |
| 1787756664 | 31.67° C | 59% | 1017.5 hPa | - | - | - | - |
| 1787756064 | 32.22° C | 60% | 1017.5 hPa | - | - | - | - |
| 1787755463 | 32.22° C | 60% | 1017.4 hPa | - | - | - | - |
| 1787754863 | 31.67° C | 62% | 1017.4 hPa | - | - | - | - |
| 1787754264 | 31.67° C | 64% | 1017.5 hPa | - | - | - | - |
| 1787753663 | 31.67° C | 61% | 1017.5 hPa | - | - | - | - |
| 1787753063 | 31.67° C | 61% | 1017.4 hPa | - | - | - | - |
| 1787752464 | 31.67° C | 60% | 1017.4 hPa | - | - | - | - |
| 1787751864 | 31.67° C | 62% | 1017.4 hPa | - | - | - | - |
| 1787751263 | 31.67° C | 64% | 1017.4 hPa | - | - | - | - |
| 1787750664 | 31.67° C | 64% | 1017.4 hPa | - | - | - | - |
| 1787750064 | 31.67° C | 64% | 1017.7 hPa | - | - | - | - |
| 1787749463 | 31.67° C | 64% | 1017.5 hPa | - | - | - | - |
| 1787748863 | 31.67° C | 65% | 1017.5 hPa | - | - | - | - |
| 1787748264 | 31.67° C | 64% | 1017.5 hPa | - | - | - | - |
| 1787747663 | 31.67° C | 66% | 1017.5 hPa | - | - | - | - |
* Rain since midnight (hover to see other rain measurements)
** Current wind speed in m/s (hover to see current wind gust speed)